Probability
0 0 0 0 0 0 0 0 0 0 0 0 0 0 0 0 0 0 0 0 0 0 0 0 0 0 0 0 0 0 1 2 2 1 0 0 0 1 2 2 2 2 2 1
0 0 0 0 0 0 0 0 0 0 0 0 0 0 0 0 0 0 0 0 0 0 0 0 0 0 0 0 0 0 0 1 1 0 0 0 0 0 1 1 2 2 1 0
0 0 0 0 0 0 0 0 0 0 0 0 0 0 0 0 0 0 0 0 0 0 0 0 0 0 0 0 0 0 0 0 0 0 0 0 0 0 0 1 2 2 1 0
0 0 0 0 0 0 0 0 0 0 0 0 0 0 0 0 0 0 0 0 0 0 0 0 0 0 0 0 0 0 0 0 0 0 0 0 0 0 0 0 1 1 0 0
0 0 0 0 0 0 0 0 0 0 0 0 0 0 0 0 0 0 0 0 0 0 0 0 0 0 0 0 0 0 0 0 0 0 0 0 0 0 0 0 0 0 0 0
0 0 0 0 0 0 0 0 0 0 0 0 0 0 0 0 0 0 0 0 0 0 0 0 0 0 0 0 0 0 0 0 0 0 0 0 0 0 0 0 0 0 0 0
0 0 0 0 0 0 0 0 0 0 0 0 0 0 0 0 0 0 0 0 0 0 0 0 0 0 0 0 0 0 0 0 0 0 0 0 0 0 0 0 0 0 0 0
0 0 0 0 0 0 0 0 0 0 0 0 0 0 0 0 0 0 0 0 0 0 0 0 0 0 0 0 0 0 0 0 0 0 0 0 0 0 0 0 0 0 0 0
0 0 0 0 0 0 0 0 0 0 0 0 0 0 0 0 0 0 0 0 0 0 0 0 0 0 0 0 0 0 0 0 0 0 0 0 0 0 0 0 0 0 0 0
0 0 0 0 0 0 0 0 0 0 0 0 0 0 0 0 0 0 0 0 0 0 0 0 0 0 0 0 0 0 0 0 0 0 0 0 0 0 0 0 0 0 0 0
0 0 0 0 0 0 0 0 0 0 0 0 0 0 0 0 0 0 0 0 0 0 0 0 0 0 0 0 0 0 0 0 0 0 0 0 0 0 0 0 0 0 0 0
0 0 0 0 0 0 0 0 0 0 0 0 0 0 0 0 0 0 0 0 0 0 0 0 0 0 0 0 0 0 0 0 0 0 0 0 0 0 0 0 0 0 0 0
0 0 0 0 0 0 0 0 0 0 0 0 0 0 0 0 0 0 0 0 0 0 0 0 0 0 0 0 0 0 0 0 0 0 0 0 0 0 0 0 0 0 0 0
0 0 0 0 0 0 0 0 0 0 0 0 0 0 0 0 0 0 0 0 0 0 0 0 0 0 0 0 0 0 0 0 0 0 0 0 0 0 0 0 0 0 0 0
0 0 0 0 0 0 0 0 0 0 0 0 0 0 0 0 0 0 0 0 0 0 0 0 0 0 0 0 0 0 0 0 0 0 0 0 0 0 0 0 0 0 0 0
0 0 0 0 0 0 0 0 0 0 0 0 0 0 0 0 0 0 0 0 0 0 0 0 0 0 0 0 0 0 0 0 0 0 0 0 0 0 0 0 0 0 0 0
0 0 0 0 0 0 0 0 0 0 0 0 0 0 0 0 0 0 0 0 0 0 0 0 0 0 0 0 0 0 0 0 0 0 0 0 0 0 0 0 0 0 0 0
0 0 0 0 0 0 0 0 0 0 0 0 0 0 0 0 0 0 0 0 0 0 0 0 0 0 0 0 0 0 0 0 0 0 0 0 0 0 0 0 0 0 0 0
0 0 0 0 0 0 0 0 0 0 0 0 0 0 0 0 0 0 0 0 0 0 0 0 0 0 0 0 0 0 0 0 0 0 0 0 0 0 0 0 0 0 0 0
0 0 0 0 0 0 0 0 0 0 0 0 0 0 0 0 0 0 0 0 0 0 0 0 0 0 0 0 0 0 0 0 0 0 0 0 0 0 0 0 0 0 0 0
0 0 0 0 0 0 0 0 0 0 0 0 0 0 0 0 0 0 0 0 0 0 0 0 0 0 0 0 0 0 0 0 0 0 0 0 0 0 0 0 0 0 0 0
0 0 0 0 0 0 0 0 0 0 0 0 0 0 0 0 0 0 0 0 0 0 0 0 0 0 0 0 0 0 0 0 0 0 0 0 0 0 0 0 0 0 0 0
0 0 0 0 0 0 0 0 0 0 0 0 0 0 0 0 0 0 0 0 0 0 0 0 0 0 0 0 0 0 0 0 0 0 0 0 0 0 0 0 0 0 0 0
0 0 0 0 0 0 0 0 0 0 0 0 0 0 0 0 0 0 0 0 0 0 0 0 0 0 0 0 0 0 0 0 0 0 0 0 0 0 0 0 0 0 0 0
0 0 0 0 0 0 0 0 0 0 0 0 0 0 0 0 0 0 0 0 0 0 0 0 0 0 0 0 0 0 0 0 0 0 0 0 0 0 0 0 0 0 0 0
0 0 0 0 0 0 0 0 0 0 0 0 0 0 0 0 0 0 0 0 0 0 0 0 0 0 0 0 0 0 0 0 0 0 0 0 0 0 0 0 0 0 0 0
0 0 0 0 0 0 0 0 0 0 0 0 0 0 0 0 0 0 0 0 0 0 0 0 0 0 0 0 0 0 0 0 0 0 0 0 0 0 0 0 0 0 0 0
Wind_Speed
7 8 6 7 8 6 8 8 7 8 8 10 7 6 5 5 6 6 6 6 6 7 7 7 7 7 6 5 6 5 4 4 4 4 4 4 4 4 4 4 4 4 3 3
6 7 7 10 10 8 8 8 9 10 11 7 6 5 5 5 6 7 7 7 7 8 8 8 8 8 8 7 7 6 4 4 4 4 4 4 4 4 4 4 3 3 3 4
4 3 5 8 7 8 6 6 5 8 7 6 7 7 5 6 7 6 6 7 7 7 7 8 8 8 8 7 7 6 5 4 4 3 3 3 4 3 4 3 3 3 4 4
4 3 7 6 0 2 3 4 4 4 5 5 6 7 5 4 5 6 7 7 7 7 7 7 7 7 7 7 6 5 5 5 4 4 3 3 3 3 3 3 3 4 3 4
3 4 8 4 0 1 1 4 3 4 5 6 6 5 3 4 4 5 6 6 6 6 6 7 7 7 7 7 6 6 5 6 5 4 3 3 3 3 3 3 3 3 3 4
4 4 6 3 0 1 0 3 3 2 4 5 6 4 4 7 7 7 6 6 6 6 6 6 6 6 6 7 6 6 6 6 6 5 4 3 4 3 3 3 3 3 3 3
5 5 7 2 0 1 1 4 3 2 3 3 3 4 6 7 7 7 6 6 6 6 6 6 6 6 7 7 7 6 6 6 6 5 4 4 3 3 3 3 2 2 2 2
4 5 7 1 2 2 3 3 2 3 3 4 5 7 7 7 7 7 7 7 6 6 6 6 6 6 7 7 8 7 6 6 6 5 4 3 3 3 2 2 1 2 1 1
5 6 2 3 3 2 1 3 3 3 4 4 6 7 7 6 6 6 7 7 6 6 6 6 5 5 6 8 8 7 7 6 6 6 4 3 2 2 2 1 1 1 1 1
5 5 3 3 3 3 3 4 4 4 4 4 6 7 7 6 6 6 6 6 6 6 6 7 6 6 6 7 7 7 7 6 6 5 4 3 2 2 1 1 1 1 1 1
6 6 5 3 3 3 3 4 4 5 4 4 5 7 7 6 6 5 6 5 5 5 6 7 7 6 7 7 7 7 6 6 5 4 4 3 3 2 2 1 1 2 1 1
5 3 3 5 3 3 4 5 5 5 5 4 4 6 6 6 5 5 5 5 6 6 6 7 7 6 6 6 6 6 6 5 4 3 3 3 3 3 4 3 4 4 4 2
4 3 4 5 4 3 4 5 4 4 5 5 4 4 5 5 5 5 5 5 6 6 6 6 6 7 7 6 6 6 5 5 4 3 3 3 2 2 3 4 5 5 5 5
2 2 4 4 4 4 4 4 4 4 4 3 4 4 4 5 5 5 6 6 6 6 6 6 6 7 7 6 6 6 5 5 4 3 3 3 2 2 2 2 3 3 4 5
3 3 4 5 4 4 3 3 3 4 4 4 3 4 4 5 6 6 6 6 6 6 6 6 6 7 7 6 6 5 4 3 3 2 2 3 2 2 2 2 2 3 3 4
4 4 4 4 5 4 3 3 4 5 4 4 4 5 5 5 5 5 5 5 5 6 6 6 6 6 6 5 5 4 3 5 4 3 3 3 2 2 2 2 2 3 3 3
3 4 4 5 5 5 4 4 4 5 4 5 5 5 5 5 5 5 5 5 5 5 5 6 6 6 5 5 4 3 3 3 4 3 2 2 2 2 2 2 2 2 3 4
3 4 4 4 5 5 6 5 4 4 5 5 5 4 4 4 5 6 6 5 5 5 5 5 5 4 4 4 3 3 2 2 2 2 2 3 2 2 2 2 3 3 3 4
3 4 4 4 4 4 5 5 5 5 5 4 4 5 5 5 5 5 5 4 5 6 6 5 7 5 4 4 4 2 2 2 2 2 2 3 3 3 2 2 2 3 3 3
4 4 4 4 4 4 4 4 4 4 4 4 4 4 5 5 5 5 4 4 4 4 4 5 4 3 3 3 4 2 2 2 2 2 2 2 2 2 2 2 2 2 2 3
4 4 4 4 4 4 4 4 4 4 4 3 4 5 5 5 4 4 4 5 4 4 4 6 3 3 2 3 3 2 2 2 2 2 2 2 2 2 2 2 2 2 2 2
4 4 5 5 4 4 4 3 3 4 4 4 4 4 4 5 5 4 4 4 4 6 4 3 2 4 4 3 1 1 1 1 1 1 1 2 2 2 2 2 2 2 2 2
4 4 4 4 4 4 4 4 3 3 4 4 4 4 4 4 3 3 4 3 3 6 4 3 4 6 6 2 1 1 1 1 1 1 1 1 2 2 2 2 2 2 2 2
4 4 4 4 3 4 5 4 4 3 3 4 4 4 3 3 3 2 3 5 6 6 3 5 7 7 6 2 1 1 1 1 1 2 2 2 2 2 2 2 2 2 2 2
4 4 4 4 3 4 4 4 4 3 3 3 3 3 2 2 3 3 3 3 5 5 3 5 7 7 4 2 2 2 2 2 2 2 2 2 2 2 2 2 2 2 2 2
3 3 3 3 3 3 3 3 3 3 3 3 3 3 2 2 2 2 2 2 3 5 3 3 3 4 2 2 2 2 2 2 3 2 2 2 3 3 3 2 3 3 3 3
3 3 3 3 3 2 3 3 3 3 3 3 3 3 3 3 3 3 3 2 2 2 2 2 2 2 2 2 2 2 2 2 2 2 2 2 3 3 3 3 3 3 3 3
Wind_Direction
267 281 279 264 260 239 226 232 244 267 278 289 308 311 317 326 328 332 334 338 340 340 338 331 333 335 331 326 323 310 289 273 263 260 262 266 268 270 268 258 251 239 226 225
273 262 265 269 262 248 244 249 257 274 280 291 305 319 329 333 330 326 329 335 338 339 335 332 333 330 331 330 325 317 303 288 280 262 259 260 260 264 267 260 256 243 226 229
271 288 298 271 245 224 227 230 234 253 270 323 329 328 326 320 321 321 327 332 332 329 325 325 326 325 324 320 321 319 315 310 310 300 266 257 259 261 258 259 258 249 230 229
278 306 253 250 84 172 219 258 245 262 295 320 314 308 304 309 320 326 328 329 326 323 322 323 322 323 320 318 321 320 321 320 313 306 295 282 271 264 264 266 257 251 242 233
259 267 271 268 19 63 244 287 272 270 298 317 328 319 316 355 351 328 326 322 317 315 314 318 321 322 321 323 325 325 324 320 312 305 299 296 285 277 275 272 262 254 251 241
241 254 256 268 32 17 71 282 329 328 313 327 348 334 311 345 342 331 327 325 323 322 320 322 323 325 323 322 325 323 320 315 311 306 299 292 287 282 278 268 258 251 253 243
236 249 263 270 292 37 207 267 334 342 323 327 313 276 299 324 328 328 324 324 323 322 322 321 324 327 322 323 320 316 316 317 316 310 301 294 293 289 274 267 262 256 246 241
212 231 254 140 114 184 246 317 326 321 318 306 298 301 311 317 322 326 325 325 324 321 317 319 327 330 324 322 320 323 322 322 322 314 307 309 302 297 287 271 255 254 239 227
210 225 239 173 200 226 285 296 298 304 306 304 301 303 308 312 315 316 318 319 320 316 315 322 330 331 321 320 325 327 327 325 325 321 316 313 302 300 308 306 291 280 242 216
268 269 268 242 243 255 249 258 280 284 287 288 288 295 301 305 309 312 314 315 317 320 320 321 325 327 319 321 326 325 325 323 323 327 326 327 321 315 319 317 319 301 278 238
258 278 302 278 264 282 286 278 278 282 277 274 282 292 296 300 305 309 314 315 317 317 314 315 319 323 323 325 327 326 322 319 321 325 323 326 330 322 318 306 313 295 267 245
240 255 256 288 316 315 295 287 285 289 294 288 275 284 293 295 298 304 309 315 317 317 316 317 321 323 325 327 328 324 322 324 325 327 327 330 336 343 341 340 344 346 343 321
249 286 282 285 298 298 284 288 292 286 281 289 293 289 292 294 299 307 310 311 311 311 311 314 319 323 327 328 329 325 321 323 324 325 328 330 335 344 347 353 356 358 358 356
269 285 284 289 293 299 295 295 295 290 283 281 289 298 300 301 307 309 307 306 307 309 310 315 318 321 326 328 327 323 321 321 323 323 327 328 332 338 342 349 356 358 356 356
295 287 273 287 292 297 306 311 308 301 300 300 297 297 300 301 300 301 305 311 312 312 314 319 320 321 327 328 324 322 323 324 323 326 331 333 340 348 355 356 0 357 359 360
301 298 291 295 296 304 309 306 299 299 306 306 306 304 300 296 296 300 306 311 310 309 312 316 316 317 322 325 325 324 324 327 332 334 339 346 352 358 0 2 4 6 3 357
299 299 300 300 302 305 301 290 285 292 300 302 302 305 307 307 307 307 306 303 298 296 301 306 308 314 320 323 324 325 328 332 341 345 348 350 353 1 6 9 4 2 2 1
263 269 274 277 287 296 301 300 295 295 292 293 299 303 302 300 298 301 303 306 307 305 305 304 310 318 322 324 322 326 331 338 350 354 354 356 358 4 10 10 6 2 359 360
291 286 287 285 285 286 290 294 296 296 295 296 297 295 291 290 292 297 302 305 309 308 309 310 318 323 321 323 328 327 340 347 356 357 356 352 356 4 7 10 8 4 0 1
302 297 296 297 296 290 289 290 293 294 293 293 295 298 300 299 298 299 300 291 286 287 297 313 315 313 314 317 327 333 345 350 356 356 356 356 356 358 358 358 2 0 359 358
307 310 309 304 301 297 290 291 293 294 299 299 293 292 294 297 297 296 297 297 300 304 308 314 317 314 311 319 327 338 343 346 352 352 348 347 347 348 349 350 350 348 347 348
305 308 306 303 301 301 301 299 294 295 300 299 296 295 299 303 304 297 280 277 300 317 322 314 316 322 324 328 333 336 336 339 338 339 338 335 332 331 332 333 330 332 336 338
300 300 300 300 298 299 305 303 297 293 291 292 293 293 292 292 296 301 304 306 309 318 322 320 325 326 327 341 351 335 329 329 327 322 320 317 315 312 311 315 316 320 322 322
298 299 299 300 303 304 304 304 300 293 288 289 288 285 288 300 301 289 285 308 323 325 328 328 333 333 337 357 346 330 321 317 314 308 307 305 301 298 299 301 301 303 303 302
301 300 302 305 303 297 296 302 305 303 303 299 299 298 292 283 287 303 313 318 324 331 332 331 335 339 348 347 340 331 326 317 307 303 299 301 299 295 288 285 288 291 291 290
302 298 293 288 290 298 305 306 304 306 309 310 314 317 320 316 307 307 315 322 324 331 336 336 337 338 341 337 332 330 328 326 328 329 322 312 306 303 298 293 290 287 288 287
308 308 307 308 308 305 304 304 303 304 307 308 312 318 323 323 323 325 327 330 332 332 331 333 335 334 332 330 331 332 331 329 325 321 320 316 310 304 303 296 290 286 284 282